Regional Weather Roundup
Issued by NWS Columbia, SC

Home | Current Version | Previous Version | Text Only | Print | Product List | Glossary On
Versions: 1 2 3 4 5 6 7 8 9 10 11 12 13 14 15 16 17 18 19 20 21 22 23 24 25 26 27 28 29 30 31 32 33 34 35 36 37 38 39 40 41 42 43 44 45 46 47 48 49 50
000
ASUS42 KCAE 042010
RWRCAE
REGIONAL WEATHER ROUNDUP
NATIONAL WEATHER SERVICE COLUMBIA SC
400 PM EDT TUE AUG 04 2015

NOTE: "FAIR" INDICATES FEW OR NO CLOUDS BELOW 12,000 FEET WITH NO
SIGNIFICANT WEATHER AND/OR OBSTRUCTIONS TO VISIBILITY.

NOT ALL STATIONS ARE QUALITY CONTROLLED BY THE NATIONAL
WEATHER SERVICE. USE DATA WITH CAUTION...ESPECIALLY
DEWPOINT OBSERVATIONS.

SCZ001>056-GAZ040-063>065-077-042100-
...UPSTATE SOUTH CAROLINA...

CITY           SKY/WX    TMP DP  RH WIND       PRES   REMARKS
ANDERSON       SUNNY     97  56  25 VRB6      29.96F HX  95
SPARTANBURG    SUNNY     97  54  23 SW6       29.95F
CLEMSON        SUNNY     99  55  23 VRB5      29.98F HX  97
GREENVILLE     SUNNY     97  58  27 VRB5      29.97F HX  96
GREENWOOD      MOSUNNY   98  61  29 W8        29.96F HX  98
GREER          SUNNY     98  56  24 VRB6      29.95F HX  96
ROCK HILL      SUNNY     98  61  29 N7        29.95F HX  98
CHESTER        PTCLDY    97  61  30 CALM      29.96F HX  97
LAURENS        PTCLDY    97  72  44 W6        29.95F HX 105


...CENTRAL SOUTH CAROLINA...

CITY           SKY/WX    TMP DP  RH WIND       PRES   REMARKS
COLUMBIA APT   MOSUNNY   98  65  33 CALM      29.91F HX 101
COLUMBIA OWENS MOSUNNY   98  62  30 VRB7      29.93F HX  99
DARLINGTON     MOSUNNY   97  70  41 NE6       29.93F HX 103
FLORENCE       SUNNY     96  69  41 VRB5G22   29.91F HX 102
MCENTIRE ANGB  PTSUNNY   97  65  34 VRB2      29.93F HX  99
ORANGEBURG     SUNNY     96  66  37 VRB3      29.93F HX  99
SUMTER SHAW    MOSUNNY   97  67  37 VRB5      29.91F HX 101
NEWBERRY       PTCLDY    95  61  31 W8        29.96F HX  95
AIKEN          FAIR      97  59  28 W8        29.98F HX  96
BARNWELL       FAIR      97  70  41 SW5       29.94F HX 103
MANNING        RAIN      88  72  58 S6        29.93F
CAMDEN         FAIR      95  64  36 N7        29.93F HX  97
LANCASTER      CLEAR     95  66  38 E5        29.94F HX  98
WINNSBORO      CLEAR     97  61  30 CALM      29.94F HX  97


...EASTERN AND COASTAL SOUTH CAROLINA...

CITY           SKY/WX    TMP DP  RH WIND       PRES   REMARKS
MYRTLE BEACH   PTSUNNY   86  73  66 NW10      29.94S
N MYRTLE BCH   PTSUNNY   84  76  76 NW10      29.91F
CONWAY         FAIR      86  77  74 CALM      29.92F HX  97
MARION         FAIR      90  70  51 CALM      29.92F HX  95
HARTSVILLE     FAIR      95  64  36 W5        29.92F HX  97
FLORENCE       SUNNY     96  69  41 VRB5G22   29.91F HX 102
DARLINGTON     MOSUNNY   97  70  41 NE6       29.93F HX 103
CHARLESTON APT PTSUNNY   89  73  59 VRB3      29.95F HX  97
MOUNT PLEASANT FAIR      88  75  66 W6        29.95F HX  97
WALTERBORO     PTCLDY    93  72  49 NW5       29.95F HX 100
BEAUFORT       MOSUNNY   92  74  55 W5        29.96F HX 101


...EASTERN GEORGIA...

CITY           SKY/WX    TMP DP  RH WIND       PRES   REMARKS
AUGUSTA BUSH F PTSUNNY   98  65  33 NE8       29.92F HX 101
AUGUSTA DANIEL SUNNY     97  63  32 VRB3      29.95F HX  98
THOMSON        MOSUNNY   99  71  40 SW6       29.99F HX 108
WASHINGTON     FAIR     100  70  37 NW5       29.96F HX 107
SYLVANIA       PTCLDY    94  77  57 SE3       29.96F HX 108
STATESBORO     SUNNY     93  76  56 W3        29.95F HX 105
SAVANNAH       MOSUNNY   93  71  48 VRB6      29.96F HX 100


...SOUTHERN NORTH CAROLINA...

CITY           SKY/WX    TMP DP  RH WIND       PRES   REMARKS
CHARLOTTE      MOSUNNY   99  60  27 W8        29.95F HX  99
MONROE         MOSUNNY   97  63  32 VRB6      29.94F HX  98
WADESBORO      CLEAR     99  56  24 N6        29.91F HX  98
ROCKINGHAM     MOCLDY    94  68  41 SE6       29.92F HX  99
RUTHERFORDTON  MOSUNNY   94  60  31 CALM      29.98F
ASHEVILLE      LGT RAIN  79  62  56 SW17G29   30.09R

$$



USA.gov is the U.S. government's official web portal to all federal, state and local government web resources and services.